Regional Weather Roundup
Issued by NWS Cleveland, OH

Home | Current Version | Previous Version | Text Only | Print | Product List | Glossary Off
Versions: 1 2 3 4 5 6 7 8 9 10 11 12 13 14 15 16 17 18 19 20 21 22 23 24 25 26 27 28 29 30 31 32 33 34 35 36 37 38 39 40 41 42 43 44 45 46 47 48 49 50

000
ASUS41 KCLE 210410
RWRCLE
OHIO REGIONAL WEATHER ROUNDUP
NATIONAL WEATHER SERVICE CLEVELAND, OH
1200 AM EDT SAT OCT 21 2017

NOTE: "FAIR" INDICATES FEW OR NO CLOUDS BELOW 12,000 FEET WITH NO
SIGNIFICANT WEATHER AND/OR OBSTRUCTIONS TO VISIBILITY.

OHZ001>008-015>018-024>027-034-035-043-044-210500-
   NORTHWEST OHIO

CITY           SKY/WX    TMP DP  RH WIND       PRES   REMARKS
DEFIANCE       CLEAR     60  50  69 SW7       30.16S
FINDLAY        CLEAR     57  44  62 S6        30.18R
TOLEDO EXPRESS CLEAR     59  50  72 S5        30.16R
TOLEDO EXEC    CLEAR     57  44  62 S8        30.18R
LIMA           CLEAR     56  50  80 S7        30.18S
$$

OHZ009>014-019>023-028>033-038-089-210500-
   NORTHEAST OHIO

CITY           SKY/WX    TMP DP  RH WIND       PRES   REMARKS
CLE-HOPKINS    CLEAR     55  40  56 S7        30.22S
CLE-LAKEFRONT  CLEAR     60  40  47 SE12      30.18S
CUY CO. ARPT   NOT AVBL
LORAIN-ELYRIA  CLEAR     50  38  63 S3        30.21R
ASHTABULA      CLEAR     53  39  59 S7        30.23R
AKRON-CANTON   CLEAR     54  41  61 S7        30.23S
WOOSTER        CLEAR     41  39  93 CALM      30.23S
MANSFIELD      CLEAR     57  40  52 S10       30.22R
YOUNGSTOWN     PTCLDY    57  37  47 S6        30.24S
$$

OHZ042-051>053-060>062-070>072-077>081-210500-
  SOUTHWEST OHIO

CITY           SKY/WX    TMP DP  RH WIND       PRES   REMARKS
CINC-COVINGTON PTCLDY    60  53  77 CALM      30.19F
CINC-LUNKEN    FOG       50  50 100 CALM      30.21F VSB 3/4
HAMILTON       CLOUDY    49  48  97 CALM      30.20F
DAYTON         PTCLDY    60  54  80 S9        30.20F
WRIGHT-PAT AFB PTCLDY    56  52  86 CALM      30.20S
DAYTON GENERAL CLEAR     60  51  72 S5        30.20S
WILMINGTON     CLEAR     55  50  83 S3        30.22R
$$

OHZ036-037-039>041-045>050-054>059-063>069-073>076-082>088-210500-
  CENTRAL AND SOUTHEAST OHIO

CITY           SKY/WX    TMP DP  RH WIND       PRES   REMARKS
COLUMBUS       PTCLDY    58  43  57 SE5       30.21S
OSU AIRPORT    CLEAR     56  43  61 CALM      30.21S
BOLTON FIELD   CLEAR     53  44  71 S5        30.22S
RICKENBACK AFB CLEAR     52  43  71 CALM      30.22R
NEWARK         CLOUDY    46  42  86 CALM      30.23R
MARION         CLEAR     55  39  54 S9        30.21R
LANCASTER      CLEAR     45  43  93 CALM      30.23S
ZANESVILLE     CLOUDY    48  44  86 CALM      30.24R
NEW PHILLY     NOT AVBL
$$




USA.gov is the U.S. government's official web portal to all federal, state and local government web resources and services.